Theta_e
301 302 301 296 298 298 291 289 296 300 303 311 313 314 317 318 322 323 326 326 328 330 333 333 334 334 338 343 343 344 345 345
300 300 299 298 300 293 290 287 286 290 297 301 307 311 315 317 319 321 324 326 329 331 333 336 337 338 341 345 344 345 345 346
296 295 296 295 293 290 292 290 288 287 296 306 309 311 316 319 322 322 323 326 327 331 334 336 340 340 342 343 344 345 346 347
295 296 298 296 296 294 293 287 286 289 292 302 310 314 316 317 320 322 325 326 327 332 334 334 338 340 341 342 343 346 348 349
294 294 296 294 292 289 290 288 287 288 292 303 306 310 314 316 317 319 322 323 326 329 332 333 336 338 341 342 343 346 350 350
294 295 296 294 296 293 292 289 288 289 292 296 306 309 312 312 316 317 321 324 325 326 332 333 335 337 340 342 344 346 350 350
296 298 300 300 301 296 293 294 292 299 293 298 301 309 311 314 314 315 317 321 324 326 330 332 334 337 341 343 345 347 348 349
296 297 302 301 302 299 298 295 295 292 293 299 305 307 309 313 313 313 315 322 324 327 330 331 334 337 342 343 346 348 348 348
294 299 299 295 301 301 301 298 297 294 299 299 303 308 310 309 315 316 319 323 324 327 330 334 337 340 341 344 347 347 347 348
295 294 290 298 302 305 303 305 301 299 301 303 307 311 311 315 319 320 323 324 325 327 330 335 340 342 343 345 346 346 346 347
296 292 298 302 307 308 304 305 305 300 311 317 322 322 322 327 322 322 324 326 327 328 330 333 340 342 343 344 345 345 344 346
296 294 292 301 310 313 308 298 313 310 321 320 315 309 314 324 335 332 327 327 327 328 330 333 338 342 342 343 343 343 345 346
297 296 300 307 311 314 298 301 318 319 321 317 312 313 317 332 337 337 334 332 331 328 329 332 337 340 339 342 342 344 346 346
297 295 295 315 311 309 311 318 320 320 319 315 312 319 328 335 338 338 336 335 332 329 329 331 337 339 339 340 344 345 345 345
301 300 312 318 316 319 321 317 322 322 322 317 316 323 334 336 336 335 333 331 335 329 329 334 338 339 338 341 344 345 345 345
308 313 314 318 321 322 323 321 320 322 326 324 322 320 333 336 333 331 330 329 333 328 335 337 340 340 340 342 346 346 345 345
308 313 316 319 320 321 323 323 321 322 324 325 329 327 336 333 330 330 333 338 344 330 336 340 343 342 346 348 348 346 346 348
304 312 315 314 320 323 322 321 321 324 327 329 332 338 340 332 333 339 342 345 345 344 344 346 348 350 351 351 350 348 347 350
310 316 317 319 322 325 321 322 322 324 324 329 336 342 337 336 336 335 345 345 345 346 348 349 350 351 353 353 353 351 350 352
Wind_Speed
5 6 11 6 4 5 9 4 4 5 9 13 7 8 6 8 9 11 15 18 21 20 20 19 19 19 19 17 15 14 15 10
6 5 3 10 8 3 2 6 4 4 5 8 9 6 6 8 9 9 10 15 17 19 20 18 18 19 17 16 18 15 13 10
4 6 10 2 3 6 7 6 8 4 8 10 13 8 12 12 12 13 16 17 19 20 20 20 17 16 16 16 16 12 12 10
12 3 2 5 7 7 7 7 2 4 9 6 11 11 12 13 14 14 17 16 19 20 20 18 18 17 18 16 15 14 13 11
12 7 5 2 3 4 6 5 8 8 9 4 8 6 8 10 8 8 12 11 14 16 19 19 17 17 17 16 16 13 12 11
13 13 6 4 6 5 7 4 6 8 7 6 9 10 7 10 9 7 9 13 15 16 20 18 18 18 17 15 14 13 13 12
11 7 6 7 6 8 6 8 8 19 12 13 13 14 12 14 6 5 10 10 15 17 18 17 16 15 15 14 14 14 13 13
6 3 7 5 6 9 8 2 9 6 9 11 10 4 6 11 9 9 9 12 16 17 18 18 17 17 16 15 15 14 13 13
6 6 6 2 6 5 4 6 7 8 17 6 7 8 12 10 10 12 11 12 15 20 20 18 18 17 17 17 15 15 14 12
5 6 4 9 2 3 4 7 8 8 5 10 9 4 4 6 9 10 11 13 14 14 15 17 17 17 15 15 16 16 14 13
2 2 7 2 2 4 1 10 5 6 3 5 6 4 5 1 7 7 9 11 12 15 17 15 17 15 15 14 14 14 15 15
3 1 4 7 1 1 5 7 4 5 9 11 5 5 6 4 5 9 9 6 10 10 11 15 15 16 17 16 15 15 15 16
2 4 8 6 10 3 4 10 5 2 6 9 8 7 8 7 5 5 6 10 9 9 14 15 15 17 17 17 19 21 18 15
1 2 5 14 7 4 7 10 4 6 4 5 4 6 7 7 7 5 6 5 7 11 13 12 15 17 17 19 22 14 13 13
8 6 3 8 6 5 10 7 10 4 3 6 6 3 4 4 5 4 6 2 1 6 7 13 17 18 18 20 14 14 14 14
5 3 15 7 7 11 16 14 16 14 2 7 7 5 3 4 4 3 2 1 1 7 10 12 14 17 17 13 13 14 14 13
4 6 15 7 11 14 17 17 16 11 8 3 7 7 5 4 5 5 4 0 1 5 7 10 12 9 10 13 14 13 11 10
4 6 5 11 13 17 15 15 14 11 13 12 2 10 8 6 4 2 2 3 4 4 7 7 8 11 11 13 14 14 11 9
6 3 5 13 12 7 11 12 8 8 17 17 18 6 6 4 2 1 3 6 3 4 6 7 8 10 11 13 13 13 11 9
Wind_Direction
168 176 135 216 207 184 95 346 102 215 283 300 267 242 183 182 172 190 184 180 184 178 181 181 186 184 187 188 193 191 190 179
231 140 212 153 171 79 321 135 209 271 267 241 291 251 200 193 200 184 177 180 187 185 184 185 188 187 183 189 191 193 186 182
103 178 212 136 187 54 113 130 163 195 257 217 242 211 203 203 211 193 201 188 184 185 188 185 182 183 187 187 190 188 188 177
215 262 200 164 222 162 167 233 227 168 256 256 235 244 187 213 205 205 202 190 180 182 184 176 183 179 184 186 188 191 188 173
301 347 360 182 206 142 111 80 191 143 257 310 267 247 242 242 218 176 187 167 171 175 182 180 178 180 182 185 191 185 180 172
218 223 176 173 183 155 118 110 166 218 238 283 267 232 227 241 239 190 188 166 171 171 181 184 177 180 179 186 186 181 179 174
289 254 184 211 181 163 159 204 160 243 193 237 227 240 209 222 232 189 157 167 174 168 177 181 179 171 174 181 178 180 177 178
298 183 244 207 185 170 206 163 253 134 242 215 245 197 150 219 217 234 193 181 173 167 172 174 176 174 171 173 178 176 178 184
287 350 283 303 210 197 221 182 164 177 224 170 223 212 220 219 194 212 202 178 170 173 174 176 176 172 174 175 171 174 184 179
265 351 208 235 254 212 240 264 226 265 257 184 217 174 133 175 199 203 187 180 184 169 174 180 172 180 172 165 173 173 180 183
196 230 280 261 80 78 34 287 246 237 187 182 141 82 8 216 173 204 197 187 183 177 179 165 173 171 162 165 175 173 180 182
132 179 268 242 204 110 127 277 277 191 174 158 155 108 237 228 155 172 195 171 173 170 169 169 169 163 159 167 174 183 186 188
260 224 282 292 311 292 123 244 297 171 211 169 169 188 171 158 115 137 168 181 152 156 177 172 163 164 170 169 187 196 189 180
334 228 246 11 343 36 308 300 284 84 355 9 62 98 127 136 135 142 154 156 174 172 172 168 167 169 176 182 200 184 174 177
171 235 306 335 259 319 325 301 331 61 81 111 98 84 125 137 156 170 164 179 163 204 169 172 170 177 181 201 175 176 172 179
6 359 336 297 2 352 354 338 329 349 301 137 146 169 187 167 186 187 225 202 11 156 177 178 183 187 190 168 165 170 175 177
275 310 324 255 353 343 345 336 326 331 326 212 124 153 175 201 191 214 176 263 20 170 186 187 170 167 152 150 152 164 172 175
260 287 230 280 314 328 341 314 320 334 358 353 235 161 159 185 220 195 158 100 85 110 137 143 141 139 146 152 156 157 168 178
244 191 275 270 301 304 307 294 324 23 44 30 7 324 132 122 186 65 72 88 106 143 129 128 140 144 155 158 162 169 170 171